Location: Milton Keynes
(52.0316°N, 0.7531°W)
Time: 14:11:37
(UTC+01:00)

GENESIS II - Pass Details

Date: 25 January 2019
Orbit: 483 x 547 km, 64.5° (Epoch: 21 April)

Event Time Altitude Azimuth Distance (km) Brightness Sun altitude
Rises 06:10:54 0° 164° (SSE) 2,600 8.1 -15.5°
Reaches altitude 10° 06:14:25 10° 130° (SE) 1,740 7.9 -15.0°
Maximum altitude 06:15:41 11° 111° (ESE) 1,663 8.1 -14.8°
Drops below altitude 10° 06:16:58 10° 92° (E) 1,758 8.2 -14.6°
Sets 06:20:34 0° 58° (ENE) 2,673 8.6 -14.1°
